Current weather by "City, St" or "zip code"  
 
Advertise Here

Current Conditions: Crawfordsville Municipal Airport, IN

Fair


64.0 F

Last Updated on Jul 27 2021, 12:55 am EDT
Humidity: 96%
Wind Speed: N 0.0 mph
Barometer 30.06 in
Dewpoint: 62.4 F
Visibility: 10.00 mi
Precip: --
Heat Index: NA
Wind Chill: NA
Current conditions at:

Crawfordsville Municipal Airport, IN (KCFJ)

Lat: 39.9756 Lon: 86.9199

Local Radar Image active severe weather and emergency alerts image image weather storm and storm spotter reports image weather observation monitoring service image
Local
Radar
Active
Alerts
Storm Reports Obs
Monitoring

Sign-up For Email & Text Message Weather Alert Notification Services


Advertise Here

Observation History for Crawfordsville Municipal Airport, IN


Time Wind
(mph)
Vis
(mi)
Weather Precip (in) Temperature (F) Relative
Humidity
Wind
Chill
(F)
Heat
Index
(F)
Pressure
Air Dwpt altimeter
(in)
sea level
(mb)
Rmks
12:55 am EDT N 0.0 10.00 Fair -- 64.0 62.4 96% NA NA 30.06 M
11:55 pm EDT N 0.0 10.00 Fair -- 64.0 63.1 96% NA NA 30.06 M
10:55 pm EDT N 0.0 10.00 Fair -- 65.0 63.7 94% NA NA 30.06 M
9:55 pm EDT N 0.0 10.00 Fair -- 67.0 64.2 91% NA NA 30.05 M
8:55 pm EDT N 0.0 10.00 Fair -- 74.0 65.5 75% NA NA 30.02 M
7:55 pm EDT N 0.0 10.00 Fair -- 79.0 66.2 65% NA NA 30.02 M
6:55 pm EDT N 0.0 10.00 Fair -- 82.0 66.7 59% NA 84 30.03 M
5:55 pm EDT N 0.0 10.00 Fair -- 83.0 65.7 55% NA 85 30.03 M
4:55 pm EDT N 0.0 10.00 Fair -- 84.0 62.2 48% NA 85 30.03 M
3:55 pm EDT NE 5.8 10.00 Partly Cloudy -- 83.0 63.0 50% NA 84 30.04 M
2:55 pm EDT N 8.1 10.00 Partly Cloudy -- 84.0 63.3 50% NA 85 30.05 M
1:55 pm EDT N 0.0 10.00 Fair -- 84.0 64.9 52% NA 86 30.05 M
12:55 pm EDT N 0.0 10.00 Fair -- 83.0 64.6 54% NA 85 30.05 M
11:55 am EDT N 0.0 10.00 Fair -- 82.0 66.0 59% NA 84 30.05 M
10:55 am EDT N 0.0 10.00 Fair -- 79.0 65.1 62% NA NA 30.04 M
9:55 am EDT 10.00 Fair -- 76.0 64.9 68% NA NA 30.05 M
8:55 am EDT N 0.0 10.00 Fair -- 71.0 66.6 85% NA NA 30.04 M
7:55 am EDT N 0.0 10.00 Fair -- 65.0 64.6 98% NA NA 30.03 M
6:55 am EDT N 0.0 1.75 Fog/Mist -- 62.0 61.7 98% NA NA 30.02 M
5:55 am EDT N 0.0 0.75 Fog/Mist -- 64.0 62.6 97% NA NA 30.00 M
4:55 am EDT N 0.0 7.00 Fair -- 65.0 64.6 97% NA NA 29.99 M
3:55 am EDT N 0.0 5.00 Fog/Mist -- 66.0 65.1 97% NA NA 29.98 M
2:55 am EDT N 0.0 5.00 Fog/Mist -- 66.0 65.3 97% NA NA 29.99 M
1:55 am EDT N 0.0 3.00 Fog/Mist -- 65.0 64.4 96% NA NA 29.99 M

Regional Weather Observation


Lafayette, Purdue University Airport, IN (KLAF)

Fair
66.0 F

Crawfordsville Municipal Airport, IN (KCFJ)

Fair
64.0 F

Frankfort Municipal Airport, IN (KFKR)

Overcast
64.0 F

Monticello White County Airport, IN (KMCX)

Fair
65.0 F

INDIANAPOLIS, IN (KTYQ)

Fair
63.0 F

Rensselaer Jasper County Airport, IN (KRZL)

Fair
64.0 F
Advertise Here

Advertise Here